This is the latest recevied weather packets stored in our database for station/object OK1VCF-5. If no packets are shown the sender has not sent any weather packets the latest 10 day(s).
| Time | Temp. | Humidity | Pressure | Rain* | Wind** | Luminosity | Snow |
|---|---|---|---|---|---|---|---|
| 1777587849 | 2.78° C | 74% | 1034.4 hPa | - | - | - | - |
| 1777586949 | 2.78° C | 74% | 1034.3 hPa | - | - | - | - |
| 1777586048 | 2.78° C | 74% | 1034.2 hPa | - | - | - | - |
| 1777585145 | 3.33° C | 73% | 1034.2 hPa | - | - | - | - |
| 1777584247 | 3.33° C | 72% | 1034.3 hPa | - | - | - | - |
| 1777583345 | 3.89° C | 70% | 1034 hPa | - | - | - | - |
| 1777582445 | 4.44° C | 67% | 1033.9 hPa | - | - | - | - |
| 1777581546 | 4.44° C | 64% | 1033.9 hPa | - | - | - | - |
| 1777580643 | 5.56° C | 62% | 1034 hPa | - | - | - | - |
| 1777579742 | 5.56° C | 62% | 1033.9 hPa | - | - | - | - |
| 1777578842 | 5.56° C | 61% | 1033.6 hPa | - | - | - | - |
| 1777577941 | 6.67° C | 58% | 1033.6 hPa | - | - | - | - |
| 1777577040 | 6.67° C | 54% | 1033.6 hPa | - | - | - | - |
| 1777576140 | 7.22° C | 52% | 1033.4 hPa | - | - | - | - |
| 1777575238 | 7.78° C | 50% | 1033.2 hPa | - | - | - | - |
| 1777574338 | 8.33° C | 48% | 1033 hPa | - | - | - | - |
| 1777573435 | 8.89° C | 47% | 1032.8 hPa | - | - | - | - |
| 1777572537 | 10° C | 45% | 1032.6 hPa | - | - | - | - |
| 1777571635 | 10° C | 44% | 1032.4 hPa | - | - | - | - |
| 1777570737 | 11.11° C | - | - | - | - | - | - |
| 1777570734 | 11.11° C | 40% | 1032.3 hPa | - | - | - | - |
| 1777569835 | 12.22° C | 36% | 1032.4 hPa | - | - | - | - |
| 1777569834 | 12.22° C | 36% | 1032.4 hPa | - | - | - | - |
| 1777568933 | 13.33° C | 35% | 1032.2 hPa | - | - | - | - |
| 1777568032 | 13.33° C | 34% | 1032.4 hPa | - | - | - | - |
* Rain since midnight (hover to see other rain measurements)
** Current wind speed in m/s (hover to see current wind gust speed)